Torna al catalogo

KUZGTU-1

AttivoRadioamatoreSSO
NORAD 57217·PAYLOAD·🇷🇺 Russia
Questo nome del satellite non è ancora stato confermato da fonti ufficiali.

Lanciato Jun 27, 2023 da Vostochny Cosmodrome

Loading…

Prossimi Passaggi (prossime 24 ore)

TLE

AggiornatoSource: Space-Track

Epoca: Sep 14, 2026, 10:59 UTC

1 57217U 23091AV  26257.45801805  .00009782  00000-0  32209-3 0  9995
2 57217  97.4972 322.9209 0011531 135.0591 225.1586 15.31638617178033

Traccia KUZGTU-1 in tempo reale con AllMySat

Download on the App Store